Regional Weather Roundup
Issued by NWS State College, PA

Home | Current Version | Previous Version | Text Only | Print | Product List | Glossary On
Versions: 1 2 3 4 5 6 7 8 9 10 11 12 13 14 15 16 17 18 19 20 21 22 23 24 25 26 27 28 29 30 31 32 33 34 35 36 37 38 39 40 41 42 43 44 45 46 47 48 49 50
000
ASUS41 KCTP 110710
RWRCTP

REGIONAL WEATHER ROUNDUP
NATIONAL WEATHER SERVICE STATE COLLEGE PA
200 AM EST THU FEB 11 2016

Note: "fair" indicates few or no clouds below 12,000 feet with no
significant weather and/or obstructions to visibility.

* = STATION THAT DOES NOT REPORT PRECIPITATION /E.G. RAIN...SNOW...ETC/
    THUNDER OR FOG.

PAZ002>004-007>009-013>016-020>023-029>032-110800-
WESTERN PENNSYLVANIA

CITY           SKY/WX    TMP DP  RH WIND       PRES   REMARKS
ERIE           CLOUDY    16   1  51 W18G29    29.90S WCI   0
MEADVILLE      CLOUDY    13   2  61 NW9G22    29.86R WCI   1
FRANKLIN*      MOCLDY    12   5  73 W12G18    29.87R WCI  -2
NEW CASTLE     SNOW      14  11  87 W9        29.93R VSB 1/2 WCI   2
BEAVER COUNTY  NOT AVBL
BUTLER*        CLOUDY    14   7  73 W13G23    29.93S WCI   0
PITTSBURGH INT FLURRIES  14   6  70 W13       29.93R WCI   0
PITTSBURGH     CLOUDY    14   7  73 W14G22    29.93S WCI  -1
INDIANA*       MOCLDY    14  10  85 W16G25    29.90R HAZE    WCI  -2
LATROBE        CLOUDY    14   7  73 SW16G22   29.94S WCI  -2
WASHINGTON CO* CLOUDY    12   5  73 SW10G17   29.96S WCI  -1
$$

PAZ004>006-010>012-017>019-024>028-033>037-041-042-045-046-049>053-110800-
CENTRAL PENNSYLVANIA

CITY           SKY/WX    TMP DP  RH WIND       PRES   REMARKS
BRADFORD       LGT SNOW  10   5  80 W8        29.73S VSB 3/4 WCI  -2
DUBOIS         CLOUDY    11   7  84 W18G25    29.77S WCI  -7
CLEARFIELD     LGT SNOW  15   8  73 W15G30    29.80S WCI   0
JOHNSTOWN      LGT SNOW  10   3  73 W22G32    29.78S WCI -10
ALTOONA        FLURRIES  15   7  70 W17G23    29.85S WCI  -1
STATE COLLEGE  LGT SNOW  16  13  88 W3        29.82F
WILLIAMSPORT   PTCLDY    18   3  52 NW6       29.85S WCI  10
SELINSGROVE    MOCLDY    20   5  52 W6        29.88S WCI  12
FT INDIANTOWN  LGT SNOW  19  18  93 W7        29.87S FOG     WCI  10
CAPITAL CITY   PTCLDY    21   6  52 W9        29.89S WCI  11
HARRISBURG     PTCLDY    23   9  55 W13       29.89R WCI  11
YORK           CLEAR     18   6  59 W9        29.89F WCI   7
$$

PAZ038>040-043-044-047-048-054-055-060>062-067>071-110800-
EASTERN PENNSYLVANIA

CITY           SKY/WX    TMP DP  RH WIND       PRES   REMARKS
SCRANTON       MOCLDY    18   1  47 W15G22    29.78S WCI   4
MOUNT POCONO   CLOUDY    15  -2  46 NW22G36   29.67S WCI  -3
ALLENTOWN      MOCLDY    23  12  62 W10       29.82S WCI  12
QUAKERTOWN*    NOT AVBL
READING        CLEAR     20  12  71 W8        29.86R WCI  10
LANCASTER      CLOUDY    18  10  71 W8        29.88R WCI   8
COATESVILLE    PTSUNNY   19  12  73 W14       29.86S WCI   6
POTTSTOWN      MOCLDY    21  11  65 VRB7      29.87R WCI  12
BLUE BELL        N/A     23  14  68 W5        29.84S
DOYLESTOWN     CLOUDY    21  14  74 W5        29.82R WCI  15
WILLOW GROVE   NOT AVBL
NORTH PHILA    MOCLDY    25  15  66 W17G24    29.86R WCI  12
PHILADELPHIA   MOCLDY    26  10  50 W15G23    29.88R WCI  14
$$



USA.gov is the U.S. government's official web portal to all federal, state and local government web resources and services.